Regional Weather Roundup
Issued by NWS Huntsville, AL

Current Version | Previous Version | Graphics & Text | Print | Product List | Glossary On
Versions: 1 2 3 4 5 6 7 8 9 10 11 12 13 14 15 16 17 18 19 20 21 22 23 24 25 26 27 28
000
ASUS44 KHUN 261010
RWRHUN

WEATHER ROUNDUP FOR THE TENNESSEE VALLEY
NATIONAL WEATHER SERVICE HUNTSVILLE AL
500 AM CDT SUN JUN 26 2022

ALZ001>004-261100-
NORTHWEST ALABAMA

CITY           SKY/WX    TMP DP  RH WIND       PRES   REMARKS
BANKHEAD NF      N/A     71  70  96 CALM        N/A
SHOALS AIRPORT CLEAR     74  70  87 E3        30.07R
$$

ALZ005>007-016-261100-
NORTH CENTRAL ALABAMA

CITY           SKY/WX    TMP DP  RH WIND       PRES   REMARKS
CULLMAN AG STN   N/A     68 N/A N/A CALM        N/A
DECATUR AP     CLEAR     72  70  93 SE3       30.09R
HUNTSVILLE AP  CLEAR     75  71  87 E5        30.09R
HUN NWS/UAH      N/A     77  71  83 CALM        N/A
MERIDIANVILLE  CLEAR     73  71  95 CALM      30.10S
VINEMONT AP    FAIR      73  72  94 CALM      30.11S
$$

ALZ008>010-261100-
NORTHEAST ALABAMA

CITY           SKY/WX    TMP DP  RH WIND       PRES   REMARKS
ALBERTVILLE      N/A     70  68  94 SE3       30.12R
FORT PAYNE     PTCLDY    69  67  94 NE3       30.12R
SCOTTSBORO AP  CLOUDY    72  72 100 CALM      30.12R
$$

TNZ076-096-097-261100-
SOUTHEASTERN MIDDLE TENNESSEE

CITY           SKY/WX    TMP DP  RH WIND       PRES   REMARKS
FAYETTEVILLE   CLEAR     73  72  94 CALM      30.12S
TULLAHOMA      PTCLDY    75  70  83 CALM      30.11R
WINCHESTER     PTCLDY    73  70  88 S6        30.11S
$$

...SURROUNDING SITES...

CITY           SKY/WX    TMP DP  RH WIND       PRES   REMARKS
ATLANTA        PTCLDY    75  64  68 SE3       30.14R
ANNISTON       CLEAR     74  71  91 NE3       30.10R
BIRMINGHAM     PTCLDY    76  73  91 CALM      30.11R
CHATTANOOGA    MOCLDY    74  70  87 CALM      30.13R
CORINTH        CLEAR     73  72  94 CALM      30.04S
DALTON         CLEAR     72  68  88 CALM      30.15R
GADSDEN        CLEAR     71  70  96 CALM      30.11R
GOLDEN TRNGL   NOT AVBL
HALEYVILLE     FAIR      72  70  93 S3        30.11S
JACKSON TN     CLEAR     74  70  87 S5        30.03F
LAWRENCEBURG     N/A     73  70  88 CALM      30.09R
LEWISBURG        N/A     75  72  88 CALM      30.08S
MEMPHIS        PTCLDY    78  66  66 S5        30.01S
MURFREESBORO   CLEAR     77  72  83 CALM      30.07S
NASHVILLE      PTCLDY    79  68  69 S3        30.08S
OXFORD MS        N/A     75  70  83 CALM      30.05R
ROME           CLEAR     72  68  87 MISG      30.12R
SAVANNAH       PTCLDY    73  72  94 CALM      30.04S
SELMER         CLEAR     75  70  83 CALM      30.04F
TUPELO         NOT AVBL
TUSCALOOSA     CLEAR     76  72  87 CALM      30.05S
$$




USA.gov is the U.S. government's official web portal to all federal, state and local government web resources and services.